| time (UTC) | temp C | wind direction | speed KPH | gust KPH | rain 1hr cm | rain 24hr cm | rain mn cm | humidity % | barometer mb |
| 20260831191516 | 16 | 263 | 0.0 | 3.2 | 0.00 | 0.03 | 0.03 | 89 | 1008.4 |
| 20260831190014 | 15 | 294 | 0.0 | 0.0 | 0.00 | 0.03 | 0.03 | 92 | 1008.5 |
| 20260831184511 | 15 | 5 | 0.0 | 0.0 | 0.00 | 0.03 | 0.03 | 94 | 1008.7 |
| 20260831183007 | 13 | 5 | 0.0 | 0.0 | 0.00 | 0.03 | 0.03 | 95 | 1008.6 |
| 20260831181504 | 13 | 216 | 0.0 | 3.2 | 0.00 | 0.03 | 0.03 | 96 | 1008.5 |
| 20260831180003 | 13 | 249 | 0.0 | 0.0 | 0.00 | 0.03 | 0.03 | 96 | 1008.4 |
| 20260831174503 | 13 | 78 | 0.0 | 0.0 | 0.00 | 0.03 | 0.03 | 96 | 1008.2 |
| 20260831173106 | 13 | 24 | 0.0 | 0.0 | 0.00 | 0.03 | 0.03 | 96 | 1008.1 |
| 20260831171606 | 12 | 273 | 0.0 | 0.0 | 0.00 | 0.03 | 0.03 | 96 | 1008.1 |
| 20260831170057 | 12 | 188 | 0.0 | 0.0 | 0.00 | 0.03 | 0.03 | 96 | 1008.0 |
| 20260831164601 | 12 | 187 | 0.0 | 0.0 | 0.00 | 0.03 | 0.03 | 96 | 1007.9 |
| 20260831163053 | 12 | 188 | 0.0 | 0.0 | 0.00 | 0.03 | 0.03 | 96 | 1007.9 |
| 20260831161551 | 12 | 188 | 0.0 | 0.0 | 0.00 | 0.03 | 0.03 | 96 | 1007.9 |
| 20260831160117 | 12 | 188 | 0.0 | 0.0 | 0.00 | 0.03 | 0.03 | 96 | 1007.9 |
| 20260831154547 | 11 | 187 | 0.0 | 0.0 | 0.00 | 0.03 | 0.03 | 96 | 1007.8 |
| 20260831153120 | 11 | 188 | 0.0 | 0.0 | 0.00 | 0.03 | 0.03 | 96 | 1007.7 |
| 20260831151542 | 11 | 188 | 0.0 | 0.0 | 0.00 | 0.03 | 0.03 | 96 | 1007.6 |
| 20260831150040 | 10 | 188 | 0.0 | 0.0 | 0.00 | 0.03 | 0.03 | 96 | 1007.5 |
| 20260831144537 | 10 | 188 | 0.0 | 0.0 | 0.00 | 0.03 | 0.03 | 96 | 1007.3 |
| 20260831143038 | 10 | 188 | 0.0 | 0.0 | 0.00 | 0.03 | 0.03 | 96 | 1007.2 |
| 20260831141539 | 10 | 188 | 0.0 | 0.0 | 0.00 | 0.03 | 0.03 | 96 | 1007.0 |
| 20260831140032 | 10 | 187 | 0.0 | 0.0 | 0.00 | 0.03 | 0.03 | 96 | 1006.8 |
| 20260831134530 | 10 | 188 | 0.0 | 0.0 | 0.00 | 0.03 | 0.03 | 96 | 1006.7 |
| 20260831133031 | 10 | 188 | 0.0 | 0.0 | 0.00 | 0.03 | 0.03 | 96 | 1006.6 |
| 20260831131531 | 10 | 187 | 0.0 | 0.0 | 0.00 | 0.03 | 0.03 | 96 | 1006.6 |
| 20260831130026 | 10 | 188 | 0.0 | 0.0 | 0.00 | 0.03 | 0.03 | 96 | 1006.5 |
| 20260831124524 | 10 | 238 | 0.0 | 0.0 | 0.00 | 0.03 | 0.03 | 96 | 1006.3 |
| 20260831123039 | 10 | 242 | 0.0 | 0.0 | 0.00 | 0.03 | 0.03 | 96 | 1006.4 |
| 20260831121528 | 10 | 242 | 0.0 | 0.0 | 0.00 | 0.03 | 0.03 | 95 | 1006.4 |
| 20260831120033 | 10 | 242 | 0.0 | 0.0 | 0.00 | 0.03 | 0.03 | 95 | 1006.3 |
| 20260831114523 | 10 | 242 | 0.0 | 0.0 | 0.00 | 0.03 | 0.03 | 95 | 1006.3 |
| 20260831113023 | 10 | 242 | 0.0 | 0.0 | 0.03 | 0.03 | 0.03 | 95 | 1006.2 |
| 20260831111517 | 10 | 242 | 0.0 | 0.0 | 0.03 | 0.03 | 0.03 | 95 | 1005.9 |
| 20260831110014 | 10 | 242 | 0.0 | 0.0 | 0.03 | 0.03 | 0.03 | 95 | 1005.9 |
| 20260831104527 | 10 | 242 | 0.0 | 0.0 | 0.03 | 0.03 | 0.03 | 95 | 1005.8 |
| 20260831103014 | 10 | 242 | 0.0 | 0.0 | 0.00 | 0.00 | 0.00 | 95 | 1005.7 |
| 20260831101520 | 10 | 242 | 0.0 | 0.0 | 0.00 | 0.00 | 0.00 | 95 | 1005.6 |
| 20260831100021 | 10 | 242 | 0.0 | 0.0 | 0.00 | 0.00 | 0.00 | 94 | 1005.6 |
| 20260831094509 | 11 | 242 | 0.0 | 0.0 | 0.00 | 0.00 | 0.00 | 95 | 1005.6 |
| 20260831093009 | 10 | 30 | 0.0 | 0.0 | 0.00 | 0.00 | 0.00 | 94 | 1005.6 |
| 20260831091508 | 10 | 30 | 0.0 | 0.0 | 0.00 | 0.00 | 0.00 | 95 | 1005.5 |
| 20260831090006 | 10 | 30 | 0.0 | 0.0 | 0.00 | 0.00 | 0.00 | 94 | 1005.5 |
| 20260831084505 | 10 | 30 | 0.0 | 0.0 | 0.00 | 0.00 | 0.00 | 94 | 1005.6 |
| 20260831083004 | 10 | 30 | 0.0 | 0.0 | 0.00 | 0.00 | 0.00 | 94 | 1005.5 |
| 20260831081502 | 11 | 30 | 0.0 | 0.0 | 0.00 | 0.00 | 0.00 | 94 | 1005.7 |
| 20260831080100 | 10 | 46 | 0.0 | 0.0 | 0.00 | 0.00 | 0.00 | 94 | 1005.7 |
| 20260831074558 | 11 | 197 | 0.0 | 0.0 | 0.00 | 0.00 | 0.00 | 94 | 1006.0 |
| 20260831073058 | 11 | 197 | 0.0 | 0.0 | 0.00 | 0.00 | 0.00 | 93 | 1005.9 |
| 20260831071602 | 11 | 196 | 0.0 | 0.0 | 0.00 | 0.00 | 0.00 | 94 | 1006.0 |
| 20260831070110 | 11 | 196 | 0.0 | 0.0 | 0.00 | 0.00 | 0.00 | 93 | 1006.0 |
| 20260831064551 | 11 | 197 | 0.0 | 0.0 | 0.00 | 0.00 | 0.00 | 93 | 1006.1 |
| 20260831063050 | 11 | 196 | 0.0 | 0.0 | 0.00 | 0.00 | 0.00 | 93 | 1006.2 |
| 20260831061548 | 11 | 196 | 0.0 | 0.0 | 0.00 | 0.00 | 0.00 | 93 | 1006.3 |
| 20260831060058 | 11 | 196 | 0.0 | 0.0 | 0.00 | 0.00 | 0.00 | 92 | 1006.5 |
| 20260831054547 | 11 | 196 | 0.0 | 0.0 | 0.00 | 0.00 | 0.00 | 92 | 1006.5 |
| 20260831053045 | 11 | 205 | 0.0 | 0.0 | 0.00 | 0.00 | 0.00 | 92 | 1006.5 |
| 20260831051558 | 11 | 211 | 0.0 | 0.0 | 0.00 | 0.00 | 0.00 | 91 | 1006.7 |
| 20260831050047 | 12 | 211 | 0.0 | 0.0 | 0.00 | 0.00 | 0.00 | 91 | 1006.8 |
| 20260831044544 | 12 | 211 | 0.0 | 0.0 | 0.00 | 0.00 | 0.00 | 90 | 1007.0 |
| 20260831043042 | 12 | 211 | 0.0 | 0.0 | 0.00 | 0.00 | 0.00 | 89 | 1007.0 |
| 20260831041542 | 12 | 211 | 0.0 | 0.0 | 0.00 | 0.00 | 0.00 | 88 | 1006.9 |
| 20260831040047 | 12 | 211 | 0.0 | 0.0 | 0.00 | 0.00 | 0.00 | 87 | 1006.7 |
| 20260831034541 | 13 | 211 | 0.0 | 0.0 | 0.00 | 0.00 | 0.00 | 86 | 1006.6 |
| 20260831033040 | 13 | 221 | 0.0 | 0.0 | 0.00 | 0.00 | 0.00 | 84 | 1006.6 |
| 20260831031542 | 14 | 197 | 0.0 | 0.0 | 0.00 | 0.00 | 0.00 | 82 | 1006.6 |
| 20260831030039 | 15 | 221 | 0.0 | 0.0 | 0.00 | 0.00 | 0.00 | 79 | 1006.5 |
| 20260831024539 | 16 | 208 | 0.0 | 0.0 | 0.00 | 0.00 | 0.00 | 76 | 1006.4 |
| 20260831023042 | 17 | 205 | 0.0 | 0.0 | 0.00 | 0.00 | 0.00 | 72 | 1006.4 |
| 20260831021552 | 18 | 229 | 0.0 | 0.0 | 0.00 | 0.00 | 0.00 | 69 | 1006.4 |
| 20260831020038 | 19 | 222 | 0.0 | 0.0 | 0.00 | 0.00 | 0.00 | 66 | 1006.5 |
| 20260831014537 | 20 | 201 | 0.0 | 0.0 | 0.00 | 0.00 | 0.00 | 63 | 1006.6 |
| 20260831013037 | 21 | 221 | 0.0 | 0.0 | 0.00 | 0.00 | 0.00 | 59 | 1006.5 |
| 20260831011540 | 22 | 211 | 0.0 | 0.0 | 0.00 | 0.00 | 0.00 | 57 | 1006.5 |
| 20260831010058 | 23 | 180 | 0.0 | 0.0 | 0.00 | 0.00 | 0.00 | 55 | 1006.4 |
| 20260831004536 | 23 | 156 | 0.0 | 0.0 | 0.00 | 0.00 | 0.00 | 54 | 1006.6 |
| 20260831003032 | 24 | 231 | 0.0 | 0.0 | 0.00 | 0.00 | 0.00 | 53 | 1006.6 |
| 20260831001549 | 24 | 296 | 0.0 | 0.0 | 0.00 | 0.00 | 0.00 | 54 | 1006.6 |
| 20260831000029 | 25 | 191 | 0.0 | 0.0 | 0.00 | 0.00 | 0.00 | 51 | 1006.6 |
| 20260830234530 | 26 | 201 | 0.0 | 0.0 | 0.00 | 0.00 | 0.00 | 52 | 1006.7 |
| 20260830233027 | 26 | 168 | 0.0 | 0.0 | 0.00 | 0.00 | 0.00 | 49 | 1006.6 |
| 20260830231530 | 26 | 220 | 0.0 | 0.0 | 0.00 | 0.00 | 0.00 | 48 | 1006.8 |
| 20260830230022 | 26 | 180 | 0.0 | 1.6 | 0.00 | 0.00 | 0.00 | 47 | 1006.9 |
| 20260830224521 | 27 | 234 | 0.0 | 0.0 | 0.00 | 0.00 | 0.00 | 47 | 1007.0 |
| 20260830223022 | 26 | 218 | 0.0 | 0.0 | 0.00 | 0.00 | 0.00 | 46 | 1007.1 |
| 20260830221518 | 27 | 205 | 0.0 | 1.6 | 0.00 | 0.00 | 0.00 | 43 | 1007.3 |
| 20260830220018 | 26 | 177 | 0.0 | 0.0 | 0.00 | 0.00 | 0.00 | 47 | 1007.5 |
| 20260830214512 | 26 | 232 | 1.6 | 8.0 | 0.00 | 0.00 | 0.00 | 49 | 1007.6 |
| 20260830213009 | 26 | 202 | 0.0 | 4.8 | 0.00 | 0.00 | 0.00 | 47 | 1007.9 |
| 20260830211516 | 26 | 188 | 0.0 | 0.0 | 0.00 | 0.00 | 0.00 | 49 | 1007.9 |
| 20260830210007 | 26 | 171 | 0.0 | 0.0 | 0.00 | 0.00 | 0.00 | 50 | 1008.1 |
| 20260830204504 | 26 | 185 | 0.0 | 0.0 | 0.00 | 0.00 | 0.00 | 50 | 1008.1 |
| 20260830203119 | 26 | 237 | 0.0 | 0.0 | 0.00 | 0.00 | 0.00 | 49 | 1008.1 |
| 20260830201600 | 26 | 226 | 0.0 | 3.2 | 0.00 | 0.00 | 0.00 | 50 | 1008.3 |
| 20260830200100 | 27 | 226 | 0.0 | 1.6 | 0.00 | 0.00 | 0.00 | 50 | 1008.3 |
| 20260830194552 | 26 | 182 | 0.0 | 4.8 | 0.00 | 0.00 | 0.00 | 49 | 1008.3 |
| 20260830193049 | 25 | 176 | 0.0 | 0.0 | 0.00 | 0.00 | 0.00 | 52 | 1008.4 |